CZ-6A DEB

Satellite information

Favourite Embed

Satellite Type and Status

DEBRISIN ORBIT

Key statistics

Satellite CZ-6A DEB at a glance.

Uptime

968

Days in orbit

Revolutions

≈ 14.7

Per day

Orbit

SSO

Sun Synchronous Orbit

Inclination

98.9

Latest

Satellite identification and parameters

Extended collection of information and parameters for CZ-6A DEB.

Object identification

Identified? True

Debris? True

Object name: CZ-6A DEB

International designator: 2022-151MY

Object number (NORAD): 54598

Object ID (CCSDS): 54598

Country: PEOPLES REPUBLIC OF CHINA (PRC)

Current information (Y/N): Y

RCS size: SMALL

Orbital parameters

Period: 98.011 minutes

Inclination: 98.8972 deg

SMA: 7041.694 km

Apoapsis: 705.584 km

Periapsis: 621.533 km

RAAN: 265.4201 deg

Eccentricy: 0.0059681

Argument of periapsis: 247.2819 deg

Mean anomaly: 112.2068 deg

Mean motion: 14.69220729 rev/day

Mean motion (dot): 0.00010844 rev/day2

B* drag term: 0.0017989 1/REarth

Two-line elements (TLE)

Creation date: July 5, 2025, 5:45 p.m.

Reference frame: TEME

Reference center: EARTH

Epoch: July 5, 2025, 4:43 a.m. UTC

TLE line 0: 0 CZ-6A DEB

TLE line 1: 1 54598U 22151MY 25186.19669994 .00010844 00000-0 17989-2 0 9990

TLE line 2: 2 54598 98.8972 265.4201 0059681 247.2819 112.2068 14.69220729139430

Live tracking on map

Real-time ground track for satellite CZ-6A DEB.

In-orbit conjunctions

A list of the most updated potential collisions computed for object CZ-6A DEB.

Target Orbit TCA Probability of collision Miss distance Type
SL-14 DEB LEO 2025-03-06 05:14:59 0.0001391585 34.0 (m) DEBRIS
SL-8 R/B LEO 2024-08-06 15:15:24 0.0001240074 406.0 (m) ROCKET BODY

Associated space launch

Chinese satellite reported for atmospheric/ocean/environmental/spatial parameter research purposes, details TBD.

CZ-6A DEB was lifted into orbit during the mission ‘Long March 6A | Yunhai 3’, on board a Long March 6A space rocket.

The launch took place on Nov. 11, 2022, 10:52 p.m. from Launch Complex 9A.

For more information about the launch, click the button.

Launch to space Long March 6A | Yunhai 3
Long March 6A | Yunhai 3

Agency: N/A

Status: Launch Successful

Launch date: Nov. 11, 2022, 10:52 p.m. UTC

Rocket: Long March 6A

Launch pad: Launch Complex 9A

Location: Taiyuan Satellite Launch Center, People's Republic of China

...

Latest news about this satellite

There are no fresh news available about this satellite. Check back as we update our databases every day.


Newsletter sign-up

Weekly statistics, charts and insights to help you stay on top of the space industry.